EW5800 Weather Reports


Display with metric or nautical units.
time (UTC)temp
F
wind
direction
speed
MPH
gust
MPH
rain 1hr
in
rain 24hr
in
rain mn
in
humidity
%
barometer
mb
20260504044541 66 227 0.0 0.0 0.00 0.00 0.00 54 1007.8
20260504043048 67 222 0.0 0.0 0.00 0.00 0.00 55 1007.8
20260504041540 67 103 0.0 0.0 0.00 0.00 0.00 53 1007.8
20260504040041 68 103 0.0 0.0 0.00 0.00 0.00 52 1007.9
20260504034539 69 103 0.0 0.0 0.00 0.00 0.00 53 1007.8
20260504033041 69 103 0.0 0.0 0.00 0.00 0.00 50 1007.8
20260504031541 71 103 0.0 0.0 0.00 0.00 0.00 51 1007.7
20260504030037 72 103 0.0 0.0 0.00 0.00 0.00 48 1007.8
20260504024537 73 103 0.0 0.0 0.00 0.00 0.00 47 1007.8
20260504023037 73 103 0.0 0.0 0.00 0.00 0.00 46 1007.9
20260504021535 74 104 0.0 0.0 0.00 0.00 0.00 46 1008.0
20260504020033 75 103 0.0 0.0 0.00 0.00 0.00 42 1008.1
20260504014538 76 221 0.0 0.0 0.00 0.00 0.00 38 1008.2
20260504013033 77 21 0.0 0.0 0.00 0.00 0.00 38 1008.4
20260504011529 78 306 0.0 2.0 0.00 0.00 0.00 34 1008.6
20260504010027 79 264 0.0 3.0 0.00 0.00 0.00 33 1008.7
20260504004524 79 202 0.0 0.0 0.00 0.00 0.00 34 1008.8
20260504003028 80 124 0.0 3.0 0.00 0.00 0.00 34 1009.0
20260504001520 82 59 0.0 3.0 0.00 0.00 0.00 32 1009.1
20260504000018 82 306 0.0 3.0 0.00 0.00 0.00 32 1009.3
20260503234517 83 95 0.0 1.0 0.00 0.00 0.00 31 1009.6
20260503233013 82 309 0.0 4.0 0.00 0.00 0.00 32 1009.7
20260503231524 82 328 0.0 3.0 0.00 0.00 0.00 33 1009.9
20260503230008 83 288 0.0 2.0 0.00 0.00 0.00 34 1010.1
20260503224518 82 296 0.0 3.0 0.00 0.00 0.00 35 1010.3
20260503223002 80 75 0.0 5.0 0.00 0.00 0.00 34 1010.5
20260503221605 80 121 0.0 3.0 0.00 0.00 0.00 34 1010.8
20260503220116 80 106 1.0 4.0 0.00 0.00 0.00 36 1010.9
20260503214556 79 340 0.0 5.0 0.00 0.00 0.00 36 1011.2
20260503213054 79 63 0.0 4.0 0.00 0.00 0.00 37 1011.3
20260503211556 79 57 0.0 7.0 0.00 0.00 0.00 38 1011.4
20260503210050 80 38 0.0 5.0 0.00 0.00 0.00 37 1011.5
20260503204548 79 51 0.0 5.0 0.00 0.00 0.00 39 1011.8
20260503203052 79 288 0.0 5.0 0.00 0.00 0.00 41 1011.9
20260503201545 80 18 0.0 2.0 0.00 0.00 0.00 42 1012.1
20260503200040 79 20 0.0 5.0 0.00 0.00 0.00 43 1012.3
20260503194639 79 269 0.0 5.0 0.00 0.00 0.00 45 1012.4
20260503193040 79 124 0.0 4.0 0.00 0.00 0.00 45 1012.7
20260503191538 79 106 0.0 1.0 0.00 0.00 0.00 45 1012.8
20260503190132 79 70 0.0 2.0 0.00 0.00 0.00 45 1013.0
20260503184531 79 82 0.0 1.0 0.00 0.00 0.00 42 1013.1
20260503183028 77 333 0.0 4.0 0.00 0.00 0.00 44 1013.1
20260503181526 77 111 0.0 1.0 0.00 0.00 0.00 45 1013.1
20260503180035 76 189 0.0 1.0 0.00 0.00 0.00 46 1013.2
20260503174523 76 178 0.0 1.0 0.00 0.00 0.00 48 1013.3
20260503173022 75 166 0.0 2.0 0.00 0.00 0.00 49 1013.4
20260503171524 74 158 0.0 1.0 0.00 0.00 0.00 50 1013.6
20260503081515 55 283 0.0 0.0 0.00 0.01 0.00 80 1013.7
20260503071611 57 333 0.0 0.0 0.00 0.01 0.00 79 1013.5
20260503060112 61 13 0.0 0.0 0.00 0.01 0.01 69 1013.1
20260503054614 62 13 0.0 0.0 0.00 0.01 0.01 69 1013.1
20260503053053 63 13 0.0 0.0 0.00 0.01 0.01 66 1013.0